Preview of NWS' New Version of Forecast
This preview is not operational and should not be used for support decisions.

Regional Weather Roundup (RWR)

Issued by National Weather Service (NWS)

                            
000
ASUS43 KDMX 160001
RWRIA 

WEATHER ROUNDUP FOR IOWA
NATIONAL WEATHER SERVICE DES MOINES IA
700 PM CDT SUN SEP 15 2019

NOTE: "FAIR" INDICATES FEW OR NO CLOUDS BELOW 12,000 FEET WITH NO
SIGNIFICANT WEATHER AND/OR OBSTRUCTIONS TO VISIBILITY.

* - THESE STATIONS ARE NOT NWS STATIONS...THUS NOT UNDER NWS
QUALITY CONTROL.  THEY ALSO DO NOT REPORT WEATHER SUCH 
AS PRECIPITATION OR FOG.  

IAZ001>003-012>014-020>022-031>034-043>046-160100-
   NORTHWEST IOWA
  
CITY           SKY/WX    TMP DP  RH WIND       PRES   REMARKS
CARROLL *      CLEAR     81  70  69 E6        30.00S HX  84           
CHEROKEE *     CLEAR     80  68  68 SE3       30.00R HX  82           
DENISON *      CLEAR     82  73  74 E3        30.01S HX  88           
LE MARS *      CLEAR     81  72  74 SE7       29.98S HX  84           
SHELDON *      CLEAR     79  72  78 SE5       29.98S HX  82           
SIOUX CITY     CLEAR     81  69  67 SE5       29.97S HX  84           
6HR MIN TEMP:  79; 6HR MAX TEMP:  88;                                

SPENCER        CLEAR     80  69  69 S6        30.01R HX  83           
6HR MIN TEMP:  80; 6HR MAX TEMP:  86;                                

STORM LAKE *   CLEAR     77  72  83 SE5       29.99R                  
$$
 
IAZ055>058-069>071-079>083-090>094-160100-
   SOUTHWEST IOWA
  
CITY           SKY/WX    TMP DP  RH WIND       PRES   REMARKS
ATLANTIC *     CLEAR     84  72  65 CALM      29.98S HX  89           
AUDUBON *        N/A     79  73  83 CALM      30.02S HX  82           
CLARINDA *     CLEAR     84  77  79 CALM      30.00S HX  94           
COUNCIL BLFS * CLEAR     84  66  54 SE5       29.97S HX  86           
CRESTON *      CLEAR     84  72  65 CALM      30.00S HX  89           
LAMONI         CLEAR     83  71  67 SW5       30.00S HX  87           
6HR MIN TEMP:  83; 6HR MAX TEMP:  88;                                

RED OAK *      CLEAR     86  73  66 CALM      29.99S HX  93           
SHENANDOAH *   CLEAR     84  73  70 SE5       29.97S HX  91           
$$
 
IAZ047>049-059>061-072>074-084-160100-
   CENTRAL IOWA
  
CITY           SKY/WX    TMP DP  RH WIND       PRES   REMARKS
AMES           CLEAR     81  71  71 NE5       30.00R HX  85           
6HR MIN TEMP:  81; 6HR MAX TEMP:  85;                                

ANKENY *       CLEAR     82  72  69 CALM      30.00R HX  87           
BOONE *        CLEAR     79  77  94 CALM      30.00R HX  83           
CHARITON *     PTCLDY    84  73  70 CALM      29.99S HX  91           
DES MOINES     PTCLDY    83  68  60 N7        29.98R HX  86           
6HR MIN TEMP:  83; 6HR MAX TEMP:  89;                                

GRINNELL*      CLEAR     78  71  77 NW5       30.01S HX  81           
KNOXVILLE *    CLEAR     84  73  70 N5        29.99R HX  91           
MARSHALLTOWN   CLEAR     81  73  76 N3        29.99R HX  86           
6HR MIN TEMP:  80; 6HR MAX TEMP:  84;                                

NEWTON *       CLEAR     81  70  69 N5        29.99R HX  84           
PELLA *          N/A     83  71  68 CALM      30.00S HX  87           
PERRY *        FAIR      81  72  75 CALM      30.00R HX  85           
$$
 
IAZ004>006-015-016-023>025-035-036-160100-
   NORTH CENTRAL IOWA
  
CITY           SKY/WX    TMP DP  RH WIND       PRES   REMARKS
ALGONA *       CLEAR     81  66  61 CALM      29.99F HX  83           
CLARION *      CLEAR     79  66  65 NE3       30.01S HX  81           
ESTHERVILLE    CLEAR     75  68  78 SE6       30.00S                  
6HR MIN TEMP:  75; 6HR MAX TEMP:  81;                                

FORT DODGE *   CLEAR     78  70  76 CALM      30.01  HX  80           
MASON CITY     CLEAR     80  63  55 CALM      30.02S HX  81           
6HR MIN TEMP:  78; 6HR MAX TEMP:  85;                                

FOREST CITY *  FAIR      77  66  69 CALM      30.01S                  
$$

IAZ007>011-017>019-026>030-037>042-050>054-066-160100-
   NORTHEAST IOWA
  
CITY           SKY/WX    TMP DP  RH WIND       PRES   REMARKS
CEDAR RAPIDS   FAIR      81  71  71 CALM      29.98R HX  85           
6HR MIN TEMP:  79; 6HR MAX TEMP:  85;                                

CHARLES CITY * FAIR      77  68  73 CALM      30.01S                  
CLINTON *        N/A     78  74  87 NE3       30.00R HX  81           
DECORAH *      FAIR      75  68  78 CALM      30.00S                  
DUBUQUE        FAIR      74  71  91 NE3       30.01R                  
6HR MIN TEMP:  74; 6HR MAX TEMP:  79;                                

MONTICELLO *   FAIR      77  77 100 CALM      30.00R                  
OELWEIN *      CLEAR     77  73  88 CALM      30.01S                  
WATERLOO       FAIR      79  68  69 N7        29.98S HX  81           
6HR MIN TEMP:  79; 6HR MAX TEMP:  88;                                

$$
 
IAZ064-065-067-068-078-160100-
   EAST CENTRAL IOWA
  
CITY           SKY/WX    TMP DP  RH WIND       PRES   REMARKS
DAVENPORT      FAIR      79  73  82 CALM      30.01R HX  82           
6HR MIN TEMP:  79; 6HR MAX TEMP:  85;                                

IOWA CITY      FAIR      84  72  67 CALM      29.99R HX  89           
6HR MIN TEMP:  82; 6HR MAX TEMP:  88;                                

MUSCATINE *    FAIR      81  75  83 N7        29.98S HX  86           
QUAD CITIES    FAIR      82  72  71 CALM      29.98R HX  87           
6HR MIN TEMP:  82; 6HR MAX TEMP:  86;                                

$$
 
IAZ062-063-075>077-085>089-095>099-160100-
   SOUTHEAST IOWA
  
CITY           SKY/WX    TMP DP  RH WIND       PRES   REMARKS
BURLINGTON     CLEAR     83  73  72 SW3       29.99R HX  89           
6HR MIN TEMP:  82; 6HR MAX TEMP:  87;                                

FAIRFIELD *    PTCLDY    82  77  83 W3        29.99R HX  91           
FORT MADISON * CLEAR     82  73  74 CALM      30.00S HX  88           
KEOKUK *       CLEAR     84  75  74 SW3       29.98S HX  92           
OSKALOOSA *    FAIR      81  72  72 CALM      29.99S HX  85           
OTTUMWA        CLEAR     83  73  72 NW3       29.98S HX  89           
6HR MIN TEMP:  83; 6HR MAX TEMP:  89;                                

WASHINGTON *     N/A    N/A N/A N/A MISG        N/A                   
$$

ABBREVIATIONS USED IN REMARKS
   TC - TEMPERATURES IN CELSIUS
  WCI - WIND CHILL INDEX
   HX - HEAT INDEX
  VSB - VISIBILITY  
$$